Location: Newark
(50.0953°N, 2.1719°E)
Time: 14:55:47
(UTC+00:00)

ISS - Visible Passes

Search period start: 26 January 2020 00:00
Search period end: 05 February 2020 00:00
Orbit: 416 x 423 km, 51.6° (Epoch: 27 January)

Date Brightness Start Highest point End Pass type
(mag) Time Alt. Az. Time Alt. Az. Time Alt. Az.
26 Jan -3.2 17:25:50 10° SW 17:29:08 49° SSE 17:31:56 13° E visible
26 Jan -2.5 19:02:31 10° W 19:04:54 41° WNW 19:04:54 41° WNW visible
27 Jan -3.8 18:14:57 10° W 18:18:21 79° NNW 18:19:21 43° ENE visible
27 Jan -0.4 19:51:55 10° WNW 19:52:18 13° WNW 19:52:18 13° WNW visible
28 Jan -3.7 17:27:24 10° WSW 17:30:48 86° SSE 17:33:46 13° ENE visible
28 Jan -2.5 19:04:22 10° W 19:06:44 40° WNW 19:06:44 40° WNW visible
29 Jan -3.6 18:16:47 10° W 18:20:09 65° N 18:21:08 41° ENE visible
29 Jan -0.4 19:53:41 10° WNW 19:54:06 13° WNW 19:54:06 13° WNW visible
30 Jan -3.6 17:29:10 10° W 17:32:33 69° N 17:35:33 13° ENE visible
30 Jan -2.6 19:06:08 10° WNW 19:08:31 43° WNW 19:08:31 43° WNW visible
31 Jan -3.7 18:18:32 10° WNW 18:21:56 70° N 18:22:57 41° E visible
31 Jan -0.4 19:55:25 10° WNW 19:55:55 13° W 19:55:55 13° W visible
01 Feb -3.6 17:30:56 10° W 17:34:18 65° N 17:37:25 12° E visible
01 Feb -2.7 19:07:49 10° WNW 19:10:23 46° W 19:10:23 46° W visible
02 Feb -3.8 18:20:12 10° WNW 18:23:36 84° SSW 18:24:54 35° ESE visible
02 Feb -0.4 19:57:21 10° W 19:57:52 13° W 19:57:52 13° W visible
03 Feb -3.8 17:32:36 10° WNW 17:36:00 80° NNE 17:39:23 10° E visible
03 Feb -2.3 19:09:33 10° W 19:12:28 33° SW 19:12:28 33° SW visible
04 Feb -2.9 18:21:51 10° WNW 18:25:07 47° SSW 18:27:10 20° SE visible
